Weather History for KGRI - October, 2012

Change the Weather History Date:

Wednesday, October 17, 2012

  Actual Average Record
Temperature  
Mean Temperature 60 °F 52 °F  
Max Temperature 71 °F 64 °F 90 °F (1926)
Min Temperature 48 °F 39 °F 15 °F (1922)
Degree Days  
Heating Degree Days 5 13  
Month to date heating degree days 209 180  
Since 1 July heating degree days 279 295  
Cooling Degree Days 0 0  
Month to date cooling degree days 4 10  
Year to date cooling degree days 1507 1033  
Growing Degree Days 6 (Base 50)    
Moisture  
Dew Point 30 °F    
Average Humidity 47    
Maximum Humidity 77    
Minimum Humidity 16    
Precipitation  
Precipitation 0.02 in 0.07 in 0.87 in (1985)
Month to date precipitation 0.51 1.13  
Year to date precipitation 9.09 24.13  
Snow  
Snow 0.00 in 0.00 in T in (1946)
Month to date snowfall 0.0 0.3  
Since 1 July snowfall 0.0 0.4  
Since 1 September snowfall 0.0 0.4  
Snow Depth 0.00 in    
Sea Level Pressure  
Sea Level Pressure 29.57 in    
Wind  
Wind Speed 23 mph (NW)    
Max Wind Speed 44 mph    
Max Gust Speed 61 mph    
Visibility 10 miles    
Events Rain    
T = Trace of Precipitation, MM = Missing Value Source: NWS Daily Summary

Daily Weather History Graph

Daily Weather History Graph

Search for Another Location

Airport or City:

Trip Planner

Search our weather history database for the weather conditions in past years. The results will help you decide how hot, cold, wet, or windy it might be!

Date:

Astronomy

Oct. 17, 2012 Rise Set
Actual Time 7:47 AM CDT 6:48 PM CDT
Civil Twilight 7:19 AM CDT 7:16 PM CDT
Nautical Twilight 6:47 AM CDT 7:48 PM CDT
Astronomical Twilight 6:15 AM CDT 8:20 PM CDT
Moon 10:24 AM CDT (10/17) 8:24 PM CDT (10/17)
Length of Visible Light 11h 56m
Length of Day
11h 01m
Waxing Crescent, 7% of the Moon is Illuminated
Oct 17
Waxing Crescent
Oct 21
First Quarter
Oct 29
Full
Nov 6
Last Quarter
Nov 13
New

Hourly Weather History & Observations

Time (CDT) Temp. Dew Point Humidity Pressure Visibility Wind Dir Wind Speed Gust Speed Precip Events Conditions
12:53 AM 66.9 °F 44.1 °F 44% 29.34 in 10.0 mi SSW 17.3 mph - N/A   Clear
1:53 AM 68.0 °F 44.1 °F 42% 29.34 in 10.0 mi SW 19.6 mph 26.5 mph N/A   Partly Cloudy
2:53 AM 66.9 °F 43.0 °F 42% 29.36 in 10.0 mi WSW 16.1 mph - N/A   Clear
3:53 AM 61.0 °F 45.0 °F 56% 29.42 in 10.0 mi NW 26.5 mph 40.3 mph N/A   Mostly Cloudy
4:53 AM 55.9 °F 48.0 °F 75% 29.47 in 10.0 mi WNW 16.1 mph 25.3 mph 0.00 in Rain Light Rain
5:53 AM 55.9 °F 48.0 °F 75% 29.47 in 10.0 mi NW 12.7 mph - 0.02 in   Mostly Cloudy
6:53 AM 54.0 °F 46.0 °F 75% 29.49 in 10.0 mi NW 16.1 mph - N/A   Partly Cloudy
7:53 AM 54.0 °F 37.9 °F 55% 29.52 in 10.0 mi NW 20.7 mph 28.8 mph N/A   Clear
8:53 AM 55.9 °F 35.1 °F 45% 29.57 in 10.0 mi NW 17.3 mph 28.8 mph N/A   Clear
9:53 AM 55.9 °F 28.9 °F 36% 29.60 in 10.0 mi NW 27.6 mph 39.1 mph N/A   Clear
10:53 AM 57.9 °F 28.9 °F 33% 29.60 in 10.0 mi NW 36.8 mph 48.3 mph N/A   Clear
11:53 AM 59.0 °F 30.9 °F 35% 29.61 in 10.0 mi NW 34.5 mph 46.0 mph N/A   Clear
12:53 PM 57.9 °F 30.9 °F 36% 29.62 in 10.0 mi NW 29.9 mph 44.9 mph N/A   Partly Cloudy
1:53 PM 61.0 °F 28.0 °F 29% 29.60 in 10.0 mi NW 31.1 mph 41.4 mph N/A   Partly Cloudy
2:53 PM 62.1 °F 19.0 °F 19% 29.58 in 10.0 mi NNW 34.5 mph 48.3 mph N/A   Clear
3:53 PM 62.1 °F 17.1 °F 18% 29.60 in 10.0 mi NW 31.1 mph 46.0 mph N/A   Clear
4:53 PM 61.0 °F 16.0 °F 17% 29.62 in 10.0 mi NW 28.8 mph 42.6 mph N/A   Clear
5:53 PM 59.0 °F 14.0 °F 17% 29.65 in 10.0 mi NW 33.4 mph 46.0 mph N/A   Clear
6:53 PM 57.0 °F 14.0 °F 18% 29.68 in 6.0 mi NNW 20.7 mph 34.5 mph N/A   Haze
7:53 PM 52.0 °F 17.1 °F 25% 29.70 in 10.0 mi NW 12.7 mph - N/A   Clear
8:53 PM 52.0 °F 19.9 °F 28% 29.70 in 10.0 mi WNW 15.0 mph - N/A   Partly Cloudy
9:53 PM 50.0 °F 21.0 °F 32% 29.72 in 10.0 mi WNW 13.8 mph - N/A   Clear
10:53 PM 50.0 °F 21.0 °F 32% 29.72 in 10.0 mi WNW 20.7 mph - N/A   Clear
11:53 PM 50.0 °F 21.0 °F 32% 29.72 in 10.0 mi WNW 19.6 mph 27.6 mph N/A   Clear